Weather History for Oxnard, CA

Change the Weather History Date:

Friday, November 23, 2012

  Actual Average Record
Temperature  
Mean Temperature 56 °F -  
Max Temperature 60 °F 67 °F 88 °F (1950)
Min Temperature 51 °F 47 °F 35 °F (1952)
Degree Days  
Heating Degree Days 10    
Growing Degree Days 6 (Base 50)    
Moisture  
Dew Point 54 °F    
Average Humidity 97    
Maximum Humidity 100    
Minimum Humidity 80    
Precipitation  
Precipitation 0.02 in - - ()
Sea Level Pressure  
Sea Level Pressure 30.12 in    
Wind  
Wind Speed 2 mph (WSW)    
Max Wind Speed 6 mph    
Max Gust Speed -    
Visibility 2 miles    
Events Fog    
Averages and records for this station are not official NWS values.
T = Trace of Precipitation, MM = Missing Value Source: NWS Daily Summary

Daily Weather History Graph

Daily Weather History Graph

Search for Another Location

Airport:

Trip Planner

Search our weather history database for the weather conditions in past years. The results will help you decide how hot, cold, wet, or windy it might be!

Date:

Astronomy

Nov. 23, 2012 Rise Set
Actual Time 6:37 AM PST 4:48 PM PST
Civil Twilight 6:10 AM PST 5:15 PM PST
Nautical Twilight 5:40 AM PST 5:46 PM PST
Astronomical Twilight 5:10 AM PST 6:16 PM PST
Moon 1:56 PM PST (11/23) 2:11 AM PST (11/23)
Length of Visible Light 11h 05m
Length of Day
10h 10m
Waxing Gibbous, 80% of the Moon is Illuminated
Nov 23
Waxing Gibbous
Nov 28
Full
Dec 6
Last Quarter
Dec 13
New
Dec 19
First Quarter

Hourly Weather History & Observations

Time (PST) Temp. Dew Point Humidity Pressure Visibility Wind Dir Wind Speed Gust Speed Precip Events Conditions
12:03 AM 55.4 °F 55.4 °F 100% 30.12 in 1.0 mi South 3.5 mph - N/A   Overcast
12:34 AM 55.4 °F 55.4 °F 100% 30.11 in 0.8 mi SSE 5.8 mph - N/A   Mist
12:51 AM 55.9 °F 55.9 °F 100% 30.12 in 0.2 mi SE 5.8 mph - N/A Fog Fog
1:51 AM 55.9 °F 55.9 °F 100% 30.12 in 0.2 mi Calm Calm - N/A Fog Fog
2:51 AM 55.0 °F 55.0 °F 100% 30.12 in 0.2 mi Calm Calm - N/A Fog Fog
3:51 AM 55.0 °F 55.0 °F 100% 30.12 in 0.5 mi Calm Calm - N/A Fog Fog
4:51 AM 54.0 °F 54.0 °F 100% 30.12 in 0.2 mi Calm Calm - N/A Fog Fog
5:51 AM 53.1 °F 53.1 °F 100% 30.12 in 0.2 mi Calm Calm - N/A Fog Fog
6:51 AM 53.1 °F 52.0 °F 96% 30.14 in 0.5 mi Calm Calm - N/A Fog Fog
7:51 AM 53.1 °F 53.1 °F 100% 30.16 in 0.2 mi Calm Calm - N/A Fog Fog
8:51 AM 53.1 °F 52.0 °F 96% 30.17 in 2.5 mi Calm Calm - N/A   Overcast
9:12 AM 53.6 °F 51.8 °F 94% 30.17 in 1.0 mi Calm Calm - N/A   Overcast
9:42 AM 53.6 °F 53.6 °F 100% 30.17 in 3.0 mi Calm Calm - N/A   Overcast
9:51 AM 54.0 °F 54.0 °F 100% 30.17 in 4.0 mi Calm Calm - N/A   Overcast
10:01 AM 55.4 °F 53.6 °F 94% 30.17 in 5.0 mi Calm Calm - N/A   Overcast
10:23 AM 57.2 °F 53.6 °F 88% 30.16 in 6.0 mi Calm Calm - N/A   Scattered Clouds
10:51 AM 60.1 °F 55.0 °F 83% 30.15 in 7.0 mi WNW 3.5 mph - N/A   Clear
11:51 AM 59.0 °F 54.0 °F 83% 30.13 in 7.0 mi WSW 5.8 mph - N/A   Partly Cloudy
1:51 PM 60.1 °F 54.0 °F 80% 30.10 in 7.0 mi West 5.8 mph - N/A   Partly Cloudy
2:51 PM 57.9 °F 54.0 °F 87% 30.09 in 3.0 mi Calm Calm - N/A   Scattered Clouds
3:00 PM 57.2 °F 55.4 °F 94% 30.09 in 3.0 mi West 5.8 mph - N/A   Mostly Cloudy
3:51 PM 55.9 °F 54.0 °F 93% 30.09 in 2.0 mi Calm Calm - N/A   Overcast
4:40 PM 55.4 °F 55.4 °F 100% 30.08 in 0.5 mi Variable 3.5 mph - N/A Fog Fog
4:51 PM 55.0 °F 55.0 °F 100% 30.08 in 0.5 mi Calm Calm - N/A Fog Fog
5:51 PM 54.0 °F 54.0 °F 100% 30.09 in 0.2 mi Calm Calm - N/A Fog Fog
6:51 PM 54.0 °F 54.0 °F 100% 30.09 in 0.2 mi Variable 4.6 mph - 0.01 in Fog Fog
7:51 PM 54.0 °F 54.0 °F 100% 30.10 in 0.2 mi NW 4.6 mph - N/A Fog Fog
8:51 PM 54.0 °F 54.0 °F 100% 30.10 in 0.2 mi WNW 3.5 mph - N/A Fog Fog
9:51 PM 53.1 °F 53.1 °F 100% 30.10 in 0.2 mi Calm Calm - 0.01 in Fog Fog
10:15 PM 53.6 °F 53.6 °F 100% 30.10 in 2.0 mi Calm Calm - N/A   Mostly Cloudy
10:19 PM 53.6 °F 53.6 °F 100% 30.10 in 4.0 mi Calm Calm - N/A   Scattered Clouds
10:24 PM 53.6 °F 53.6 °F 100% 30.10 in 1.8 mi Calm Calm - N/A   Scattered Clouds
10:35 PM 51.8 °F 51.8 °F 100% 30.10 in 3.0 mi Calm Calm - N/A   Clear
10:41 PM 51.8 °F 50.0 °F 94% 30.10 in 1.5 mi Calm Calm - N/A   Partly Cloudy
10:51 PM 51.1 °F 50.0 °F 96% 30.10 in 0.5 mi Calm Calm - N/A Fog Fog
10:57 PM 51.8 °F 50.0 °F 94% 30.09 in 1.2 mi Calm Calm - N/A   Scattered Clouds
11:02 PM 51.8 °F 51.8 °F 100% 30.09 in 3.0 mi Calm Calm - N/A   Partly Cloudy